Content
SEND FEEDBACK

Daily
Averages
Monthly
Summary
Brazil

MACAE, RIO DE JANEIRO


Home > South America > Brazil > Rio De Janeiro
Elevation: 7 feet     Latitude: 22 21S     Longitude: 041 46W

WEATHER
 
SELECT A DAY
Number of Records: 103,042;   Date Range: 6/30/96 - 11/26/14
 
SHARE

PRINT THIS DATA

[ ← Previous Day ]
WEATHER ALMANAC - MARCH 2, 2013
[ Next Day → ]
[ °C ]   °F
Weather ElementAverageHighLow
Temperature75.7 °F84.2 °F (10:00 am)71.6 °F (1:00 am)
Dewpoint72.1 °F77 °F (9:00 am)69.8 °F (2:00 am)
Humidity89 %100 % (1:00 am)70 % (10:00 am)
Barometer30.03 in30.06 in (9:00 pm)29.98 in (3:00 am)
Wind Speed4.3 mph8.1 mph (1:00 pm)
Weather ElementAverage
Visibility5.1 mi
Wind DirectionSSE (174.3 °)

Weather ElementTotal
Precipitation---
Cooling Degree Days12.9 (Base 65)
Growing Degree Days27.9 (Base 50)
Averaged from 23 records on March 2, 2013
WEATHER CONDITIONS BREAKOUT
WIND DIRECTION BREAKOUT
WEATHER BY HOUR - MARCH 2, 2013
[ °C ]   °F
Local TimeTemperatureDewpointHumidityBarometerVisibilityWind DirectionWind SpeedGust SpeedPrecipitationEventsConditions
1:00 AM71.6 °F71.6 °F100 %30.01 in5.0 miEast (100°)4.6 mphOvercast
2:00 AM71.6 °F69.8 °F94 %30.01 in5.0 miSE (130°)1.2 mphOvercast
3:00 AM71.6 °F69.8 °F94 %29.98 in6.2 miNE (50°)1.2 mphOvercast
4:00 AM71.6 °F69.8 °F94 %30.01 in6.2 miNW (310°)4.6 mphOvercast
5:00 AM71.6 °F69.8 °F94 %30.01 in6.2 miNW (310°)3.5 mphOvercast
6:00 AM71.6 °F69.8 °F94 %30.01 in6.2 miNNW (330°)3.5 mphOvercast
7:00 AM73.4 °F71.6 °F94 %30.01 in6.2 miNW (320°)5.8 mphOvercast
8:00 AM77.0 °F75.2 °F94 %30.04 in6.2 miNW (310°)4.6 mphOvercast
9:00 AM80.6 °F77.0 °F89 %30.04 in6.2 miWest (280°)2.3 mphMostly Cloudy
10:00 AM84.2 °F73.4 °F70 %30.04 in6.2 miSouth (170°)5.8 mphMostly Cloudy
11:00 AM80.6 °F71.6 °F74 %30.04 in6.2 miSSE (160°)6.9 mphMostly Cloudy
12:00 PM78.8 °F71.6 °F78 %30.04 in6.2 miSouth (170°)6.9 mphMostly Cloudy
1:00 PM78.8 °F73.4 °F83 %30.04 in6.2 miSouth (180°)8.1 mphMostly Cloudy
2:00 PM80.6 °F71.6 °F74 %30.01 in6.2 miSouth (190°)8.1 mphMostly Cloudy
3:00 PM78.8 °F71.6 °F78 %30.01 in6.2 miSSW (200°)5.8 mphOvercast
4:00 PM77.0 °F71.6 °F83 %30.01 in6.2 miSouth (190°)5.8 mphOvercast
5:00 PM75.2 °F71.6 °F89 %30.01 in3.1 miSSW (200°)2.3 mphRainLight Rain
6:00 PM73.4 °F71.6 °F94 %30.04 in2.5 miSouth (180°)2.3 mphRainLight Rain
7:00 PM75.2 °F73.4 °F94 %30.04 in3.1 miENE (60°)3.5 mphRainLight Rain
8:00 PM73.4 °F73.4 °F100 %30.04 in2.5 miNE (40°)2.3 mphRainLight Rain
9:00 PM75.2 °F73.4 °F94 %30.06 in2.5 miENE (60°)3.5 mphRainLight Rain
10:00 PM75.2 °F73.4 °F94 %30.06 in2.5 miENE (70°)5.8 mphRainLight Rain
11:00 PM75.2 °F73.4 °F94 %30.06 in4.3 miCalmRainLight Rain
Hourly data recorded from SBME, located miles away from Macae, Rio De Janeiro







STORIES FROM OUR PARTNERS